Goodland, KS

1:05 PM MST on January 20, 2017 (GMT -0700)
Renner-Goodland Municipal

Weather History for KGLD - October, 2012

Change the Weather History Date:

Monday, October 8, 2012

  Actual Average Record
Temperature  
Mean Temperature 55 °F 55 °F  
Max Temperature 73 °F 69 °F 91 °F (1910)
Min Temperature 37 °F 40 °F 20 °F (2000)
Degree Days  
Heating Degree Days 10 11  
Month to date heating degree days 137 75  
Since 1 July heating degree days 213 199  
Cooling Degree Days 0 0  
Month to date cooling degree days 2 5  
Year to date cooling degree days 1338 938  
Growing Degree Days 5 (Base 50)    
Moisture  
Dew Point 23 °F    
Average Humidity 43    
Maximum Humidity 76    
Minimum Humidity 9    
Precipitation  
Precipitation 0.00 in 0.05 in 0.85 in (2011)
Month to date precipitation 0.24 0.38  
Year to date precipitation 8.85 17.50  
Snow  
Snow 0.00 in 0.00 in - ()
Month to date snowfall 0.5 0.2  
Since 1 July snowfall 0.5 0.6  
Since 1 September snowfall 0.5 0.6  
Snow Depth 0.00 in    
Sea Level Pressure  
Sea Level Pressure 29.91 in    
Wind  
Wind Speed 10 mph (SW)    
Max Wind Speed 20 mph    
Max Gust Speed 23 mph    
Visibility 10 miles    
Events      
T = Trace of Precipitation, MM = Missing Value Source: NWS Daily Summary

Daily Weather History Graph

Daily Weather History Graph

Search for Another Location

Airport or City:

Trip Planner

Search our weather history database for the weather conditions in past years. The results will help you decide how hot, cold, wet, or windy it might be!

Date:

Astronomy

Oct. 08, 2012 Rise Set
Actual Time 6:50 AM MDT 6:17 PM MDT
Civil Twilight 6:23 AM MDT 6:44 PM MDT
Nautical Twilight 5:52 AM MDT 7:15 PM MDT
Astronomical Twilight 5:21 AM MDT 7:46 PM MDT
Moon No Moon Rise 2:06 PM MDT (10/8)
Length of Visible Light 12h 21m
Length of Day
11h 27m
Last Quarter, 46% of the Moon is Illuminated
Oct 8
Last Quarter
Oct 15
New
Oct 21
First Quarter
Oct 29
Full
Nov 6
Last Quarter

Hourly Weather History & Observations

Time (MDT) Temp. Windchill Dew Point Humidity Pressure Visibility Wind Dir Wind Speed Gust Speed Precip Events Conditions
12:53 AM 36.0 °F 28.0 °F 27.0 °F 70% 30.08 in 10.0 mi WSW 11.5 mph - N/A   Clear
1:53 AM 37.9 °F 29.6 °F 30.0 °F 73% 30.06 in 10.0 mi WSW 13.8 mph - N/A   Clear
2:53 AM 39.0 °F 31.0 °F 30.0 °F 70% 30.04 in 10.0 mi WSW 13.8 mph - N/A   Clear
3:53 AM 37.0 °F 29.3 °F 28.9 °F 73% 30.02 in 10.0 mi WSW 11.5 mph - N/A   Clear
4:53 AM 37.9 °F 30.0 °F 28.9 °F 70% 29.99 in 10.0 mi WSW 12.7 mph - N/A   Clear
5:53 AM 37.9 °F 30.0 °F 28.0 °F 68% 29.99 in 10.0 mi WSW 12.7 mph - N/A   Clear
6:53 AM 37.9 °F 30.0 °F 27.0 °F 65% 30.00 in 10.0 mi WSW 12.7 mph - N/A   Clear
7:53 AM 42.1 °F 34.9 °F 28.0 °F 58% 30.01 in 10.0 mi WSW 13.8 mph - N/A   Clear
8:53 AM 52.0 °F - 28.9 °F 41% 30.01 in 10.0 mi WSW 15.0 mph - N/A   Clear
9:53 AM 60.1 °F - 25.0 °F 26% 29.99 in 10.0 mi WSW 16.1 mph - N/A   Clear
10:53 AM 66.0 °F - 21.9 °F 19% 29.95 in 10.0 mi WSW 9.2 mph - N/A   Clear
11:53 AM 68.0 °F - 10.9 °F 11% 29.92 in 10.0 mi Calm Calm - N/A   Clear
12:53 PM 71.1 °F - 12.9 °F 11% 29.87 in 10.0 mi WSW 5.8 mph - N/A   Clear
1:53 PM 72.0 °F - 10.0 °F 9% 29.83 in 10.0 mi Variable 5.8 mph - N/A   Clear
2:53 PM 73.0 °F - 12.9 °F 10% 29.81 in 10.0 mi SSW 11.5 mph 16.1 mph N/A   Clear
3:53 PM 72.0 °F - 14.0 °F 11% 29.80 in 10.0 mi SSW 9.2 mph - N/A   Clear
4:53 PM 71.1 °F - 12.9 °F 11% 29.80 in 10.0 mi SW 8.1 mph - N/A   Clear
5:53 PM 64.9 °F - 21.0 °F 19% 29.80 in 10.0 mi South 5.8 mph - N/A   Clear
6:53 PM 57.0 °F - 24.1 °F 28% 29.82 in 10.0 mi South 6.9 mph - N/A   Clear
7:53 PM 59.0 °F - 21.2 °F 23% 29.85 in 10.0 mi South 10.4 mph - N/A   Clear
8:53 PM 55.0 °F - 24.1 °F 30% 29.80 in 10.0 mi South 9.2 mph - N/A   Clear
9:53 PM 52.0 °F - 28.9 °F 41% 29.80 in 10.0 mi SSW 13.8 mph - N/A   Clear
10:53 PM 53.6 °F - 30.2 °F 41% 29.85 in 10.0 mi South 13.8 mph - N/A   Clear
11:53 PM 48.9 °F - 32.0 °F 52% 29.77 in 10.0 mi South 8.1 mph - N/A   Clear